Regional Weather Roundup
Issued by NWS

Home | Current Version | Previous Version | Graphics & Text | Print | Product List | Glossary On
Versions: 1 2 3 4 5 6 7 8 9 10 11 12 13 14 15 16 17 18 19 20 21 22 23 24 25 26 27 28 29 30 31 32 33 34 35 36 37 38 39 40 41 42 43 44 45 46 47 48 49 50
000
ASUS43 KOAX 261802
RWRNE

WEATHER ROUNDUP FOR NEBRASKA
NATIONAL WEATHER SERVICE OMAHA NE
1200 PM CST THU FEB 26 2015

NOTES: SATELLITE DATA IS BEING USED TO AUGMENT CLOUD COVER ABOVE
       12000 FEET.
       "FAIR" INDICATES FEW OR NO CLOUDS BELOW 12,000 FEET WITH NO
       SIGNIFICANT WEATHER AND/OR OBSTRUCTIONS TO VISIBILITY.

  * THESE STATIONS DO NOT REPORT WEATHER SUCH AS RAIN...SNOW OR FOG.

NEZ001>004-019>022-054>056-261900-
NEBRASKA PANHANDLE

CITY           SKY/WX    TMP DP  RH WIND       PRES   REMARKS
SCOTTSBLUFF    CLOUDY    15   2  56 N10       30.32S WCI   2
6HR MIN TEMP:   8; 6HR MAX TEMP:  16; 6HR PCP: TRACE;

ALLIANCE       CLOUDY    11   1  64 N7        30.33R WCI   0
6HR MIN TEMP:   6; 6HR MAX TEMP:  11;

CHADRON        CLOUDY     9   1  70 NE7       30.42R HAZE    WCI  -2
6HR MIN TEMP:   6; 6HR MAX TEMP:   9; 6HR PCP: TRACE;

KIMBALL        LGT SNOW  11   4  73 CALM      30.22S
SIDNEY         LGT SNOW  14   6  70 N3        30.28S
6HR MIN TEMP:  10; 6HR MAX TEMP:  15; 6HR PCP: TRACE;

$$

NEZ057>060-069>072-079>082-261900-
SOUTHWEST NEBRASKA

CITY           SKY/WX    TMP DP  RH WIND       PRES   REMARKS
NORTH PLATTE   SUNNY     16  -2  45 N13G24    30.41S WCI   2
6HR MIN TEMP:   4; 6HR MAX TEMP:  18;

IMPERIAL         N/A     16   1  51 N12       30.37R WCI   3
6HR MIN TEMP:  10; 6HR MAX TEMP:  18;

MCCOOK         MOSUNNY   21  -1  38 N10G20    30.42S WCI  10
6HR MIN TEMP:   8; 6HR MAX TEMP:  21;

$$

NEZ005>010-023>029-035>040-094-261900-
NORTH CENTRAL NEBRASKA

CITY           SKY/WX    TMP DP  RH WIND       PRES   REMARKS
VALENTINE      MIX PCPN   7  -2  66 N12G22    30.46R WCI  -8
6HR MIN TEMP:  -2; 6HR MAX TEMP:   7; 6HR PCP: TRACE;

AINSWORTH      SUNNY      8  -3  61 N16       30.45R WCI -10
BROKEN BOW     SUNNY     12  -3  51 N20G29    30.43S WCI  -6
6HR MIN TEMP:   1; 6HR MAX TEMP:  13;

ORD            SUNNY     11  -4  51 N15G23    30.46S WCI  -5
6HR MIN TEMP:   0; 6HR MAX TEMP:  11;

$$

NEZ041-046>049-061>064-073>077-083>087-261900-
SOUTH CENTRAL NEBRASKA

CITY           SKY/WX    TMP DP  RH WIND       PRES   REMARKS
GRAND ISLAND   SUNNY     12  -4  48 N16G23    30.49S WCI  -5
6HR MIN TEMP:   0; 6HR MAX TEMP:  12;

AURORA         SUNNY     12  -3  50 N15G21    30.48R WCI  -4
HASTINGS       SUNNY     13  -5  44 N15G24    30.46S WCI  -3
6HR MIN TEMP:   2; 6HR MAX TEMP:  13;

HEBRON         SUNNY     13  -4  46 N12G21    30.49S WCI  -1
HOLDREGE       SUNNY     15  -3  45 N12G23    30.44R WCI   1
KEARNEY *      SUNNY     14  -2  48 N18       30.45S WCI  -3
YORK           SUNNY     10  -2  56 N15G23    30.49R WCI  -6
$$

NEZ011>018-030>034-042>045-261900-
NORTHEAST NEBRASKA

CITY           SKY/WX    TMP DP  RH WIND       PRES   REMARKS
NORFOLK        PTSUNNY    9  -1  64 N18G25    30.49S WCI -10
6HR MIN TEMP:  -2; 6HR MAX TEMP:   9;

ALBION         MOSUNNY    9  -2  62 N15G22    30.49S WCI  -8
BLAIR          SUNNY      8  -3  62 NW14G20   30.48S WCI  -9
COLUMBUS *     SUNNY      9  -8  47 N15       30.52S WCI  -8
FREMONT        MOSUNNY   11   0  61 N15G21    30.52R WCI  -6
TEKAMAH        MOSUNNY    9  -1  64 N16       30.54R WCI  -8
6HR MIN TEMP:   0; 6HR MAX TEMP:   9;

WAYNE          MOSUNNY    7  -2  64 N21       30.52S WCI -13
$$

NEZ050>053-065>068-078-088>093-261900-
SOUTHEAST NEBRASKA

CITY           SKY/WX    TMP DP  RH WIND       PRES   REMARKS
LINCOLN        MOSUNNY   12   0  58 N17G28    30.52S WCI  -5
6HR MIN TEMP:   2; 6HR MAX TEMP:  12;

OMAHA EPPLEY   MOSUNNY    7  -1  70 N17       30.53R WCI -12
6HR MIN TEMP:   1; 6HR MAX TEMP:   8;

BEATRICE       MOSUNNY   12   0  59 N17       30.49F WCI  -5
FALLS CITY     MOSUNNY   14  -1  51 NW16      30.49S WCI  -2
6HR MIN TEMP:   5; 6HR MAX TEMP:  15;

NEBRASKA CITY  MOSUNNY   10  -1  61 N14G21    30.49S WCI  -7
$$

NEZ044-045-051>053-067-261900-
OMAHA AREA

CITY           SKY/WX    TMP DP  RH WIND       PRES   REMARKS
OMAHA EPPLEY   MOSUNNY    7  -1  70 N17       30.53R WCI -12
6HR MIN TEMP:   1; 6HR MAX TEMP:   8;

BLAIR          SUNNY      8  -3  62 NW14G20   30.48S WCI  -9
FREMONT        MOSUNNY   11   0  61 N15G21    30.52R WCI  -6
OFFUTT AFB     SUNNY      9  -1  62 N14       30.51S WCI  -7
WAHOO          FAIR      10  -1  61 N15       30.52R WCI  -7
$$


USA.gov is the U.S. government's official web portal to all federal, state and local government web resources and services.